Hourly Data Report for October 25, 2014

All times are specified in Local Standard Time (LST). Add 1 hour to adjust for Daylight Saving Time where and when it is observed.

IQALUIT CLIMATE
NUNAVUT

63°44'50.000" N
68°32'40.000" W
33.50 m
2402592
71321
XFB

Download Data

Hourly Data (October 2014)
Hourly Data Report for October 25, 2014
Temp Definition
°C
Dew Point Temp Definition
°C
Rel Hum Definition
%
Wind Dir Definition
10's deg

Wind Spd Definition
km/h
Visibility Definition
km
Stn Press Definition
kPa
Hmdx Definition


Wind Chill Definition


Weather Definition


TIME
00:00 -14.7 -17.5 79 33 14   101.95   -22 LegendNANA
01:00 -15.5 -18.3 79 33 15   101.97   -24 LegendNANA
02:00 -16.3 -19.2 79 33 15   101.92   -25 LegendNANA
03:00 -15.5 -18.6 77 33 15   101.88   -24 LegendNANA
04:00 -16.6 -19.2 80 34 13   101.84   -24 LegendNANA
05:00 -16.6 -19.2 81 33 18   101.77   -26 LegendNANA
06:00 -16.7 -19.5 79 36 11   101.75   -24 LegendNANA
07:00 -16.4 -19.4 78 35 12   101.70   -24 LegendNANA
08:00 -15.1 -18.0 78 33 15   101.66   -23 LegendNANA
09:00 -15.3 -18.0 79 33 16   101.64   -24 LegendNANA
10:00 -13.6 -17.5 72 34 10   101.61   -20 LegendNANA
11:00 -13.3 -18.3 66 2 8   101.58   -18 LegendNANA
12:00 -12.5 -18.1 63 2 8   101.54   -17 LegendNANA
13:00 -13.8 -17.9 71 32 13   101.52   -21 LegendNANA
14:00 -12.6 -18.1 63 29 3   101.50   -15 LegendNANA
15:00 -13.0 -18.9 61 2 3   101.52   -15 LegendNANA
16:00 -13.9 -19.5 63 3 4   101.55   -17 LegendNANA
17:00 -14.8 -19.6 67 7 4   101.57   -18 LegendNANA
18:00 -14.4 -20.1 62 2 3   101.58   -17 LegendNANA
19:00 -13.5 -19.4 61 3 4   101.58   -16 LegendNANA
20:00 -14.7 -19.6 66 4 6   101.57   -19 LegendNANA
21:00 -13.8 -19.4 63 5 6   101.57   -18 LegendNANA
22:00 -15.3 -20.4 65 4 6   101.56   -20 LegendNANA
23:00 -13.7 -18.9 65 6 6   101.55   -18 LegendNANA

Notes on Data Quality.

Legend

  • E = Estimated
  • M = Missing
  • NA = Not Available
  • ‡ = Partner data that is not subject to review by the National Climate Archives
Date modified: